This is the latest recevied weather packets stored in our database for station/object DM4WH-13. If no packets are shown the sender has not sent any weather packets the latest 10 day(s).
| Time | Temp. | Humidity | Pressure | Rain* | Wind** | Luminosity | Snow |
|---|---|---|---|---|---|---|---|
| 1777557923 | 15° C | 37% | 1031.7 hPa | 0 mm | 0.45 m/s, 337° | - | - |
| 1777557611 | 16.11° C | 35% | 1031.8 hPa | 0 mm | 0.89 m/s, 24° | - | - |
| 1777557323 | 16.11° C | 34% | 1031.8 hPa | 0 mm | 0.89 m/s, 42° | - | - |
| 1777557011 | 15° C | 36% | 1031.9 hPa | 0 mm | 1.34 m/s, 329° | - | - |
| 1777556723 | 15° C | 36% | 1031.9 hPa | 0 mm | 0.45 m/s, 40° | - | - |
| 1777556410 | 15° C | 35% | 1031.9 hPa | 0 mm | 0.89 m/s, 25° | - | - |
| 1777556123 | 16.11° C | 34% | 1031.9 hPa | 0 mm | 0.89 m/s, 276° | - | - |
| 1777555810 | 16.11° C | 34% | 1032 hPa | 0 mm | 0.89 m/s, 31° | - | - |
| 1777555523 | 16.11° C | 34% | 1032 hPa | 0 mm | 0.45 m/s, 29° | - | - |
| 1777555210 | 16.11° C | 34% | 1032.1 hPa | 0 mm | 0.89 m/s, 41° | - | - |
| 1777554923 | 15° C | 34% | 1032 hPa | 0 mm | 0.45 m/s, 276° | - | - |
| 1777554610 | 16.11° C | 35% | 1032.1 hPa | 0 mm | 0.45 m/s, 280° | - | - |
| 1777554323 | 15° C | 34% | 1032.2 hPa | 0 mm | 0.89 m/s, 12° | - | - |
| 1777554011 | 15° C | 35% | 1032.3 hPa | 0 mm | 0.89 m/s, 54° | - | - |
| 1777553723 | 16.11° C | 35% | 1032.3 hPa | 0 mm | 0.45 m/s, 73° | - | - |
| 1777553410 | 16.11° C | 35% | 1032.3 hPa | 0 mm | 0.45 m/s, 342° | - | - |
| 1777553123 | 15° C | 36% | 1032.4 hPa | 0 mm | 0.89 m/s, 272° | - | - |
| 1777552811 | 15° C | 36% | 1032.4 hPa | 0 mm | 0.45 m/s, 30° | - | - |
| 1777552535 | 15° C | 33% | 1032.5 hPa | 0 mm | 0.89 m/s, 303° | - | - |
| 1777552223 | 15° C | 34% | 1032.4 hPa | 0 mm | 0.89 m/s, 120° | - | - |
| 1777551910 | 15° C | 34% | 1032.5 hPa | 0 mm | 0.45 m/s, 36° | - | - |
| 1777551623 | 15° C | 34% | 1032.6 hPa | 0 mm | 0 m/s | - | - |
| 1777551310 | 13.89° C | 35% | 1032.7 hPa | 0 mm | 0.45 m/s, 34° | - | - |
| 1777551023 | 13.89° C | 35% | 1032.7 hPa | 0 mm | 0.45 m/s, 42° | - | - |
| 1777550710 | 13.89° C | 36% | 1032.8 hPa | 0 mm | 0.45 m/s, 17° | - | - |
* Rain latest hour (hover to see other rain measurements)
** Current wind speed in m/s (hover to see current wind gust speed)